This is the latest recevied weather packets stored in our database for station/object KC0RKM-13. If no packets are shown the sender has not sent any weather packets the latest 10 day(s).
| Time | Temp. | Humidity | Pressure | Rain* | Wind** | Luminosity | Snow |
|---|---|---|---|---|---|---|---|
| 1787809204 | 22.22° C | 76% | 1018.1 hPa | 0 mm | - | - | - |
| 1787808604 | 22.22° C | 76% | 1017.8 hPa | 0 mm | - | - | - |
| 1787808003 | 22.22° C | 76% | 1017.8 hPa | 0 mm | - | - | - |
| 1787807404 | 22.78° C | 76% | 1017.7 hPa | 0 mm | - | - | - |
| 1787806804 | 22.78° C | 76% | 1017.7 hPa | 0 mm | - | - | - |
| 1787806207 | 23.33° C | 74% | 1017.7 hPa | 0 mm | - | - | - |
| 1787805604 | 23.33° C | 74% | 1017.7 hPa | 0 mm | - | - | - |
| 1787805003 | 23.33° C | 74% | 1017.7 hPa | 0 mm | - | - | - |
| 1787804403 | 22.78° C | 76% | 1017.5 hPa | 0 mm | - | - | - |
| 1787803804 | 22.78° C | 78% | 1017.4 hPa | 0 mm | - | - | - |
| 1787803204 | 23.33° C | 77% | 1017.7 hPa | 0 mm | - | - | - |
| 1787802603 | 23.33° C | 77% | 1017.7 hPa | 0 mm | - | - | - |
| 1787802004 | 23.33° C | 76% | 1017.6 hPa | 0 mm | - | - | - |
| 1787801404 | 23.89° C | 76% | 1017.3 hPa | 0 mm | - | - | - |
| 1787800804 | 23.89° C | 75% | 1017.5 hPa | 0 mm | - | - | - |
| 1787800204 | 24.44° C | 74% | 1017.2 hPa | 0 mm | - | - | - |
| 1787799604 | 24.44° C | 75% | 1016.9 hPa | 0 mm | - | - | - |
| 1787799004 | 24.44° C | 74% | 1017.2 hPa | 0 mm | - | - | - |
| 1787798403 | 24.44° C | 75% | 1016.9 hPa | 0 mm | - | - | - |
| 1787797804 | 25° C | 74% | 1016.8 hPa | 0 mm | - | - | - |
| 1787797203 | 25.56° C | 72% | 1016.8 hPa | 0 mm | - | - | - |
| 1787796604 | 25.56° C | 72% | 1016.6 hPa | 0 mm | - | - | - |
| 1787796004 | 26.11° C | 71% | 1016.3 hPa | 0 mm | - | - | - |
| 1787795404 | 26.11° C | 70% | 1016.3 hPa | 0 mm | - | - | - |
| 1787794804 | 26.11° C | 70% | 1016.4 hPa | 0 mm | - | - | - |
* Rain latest hour (hover to see other rain measurements)
** Current wind speed in m/s (hover to see current wind gust speed)